STARLINK-32288, 60943

Orbit data source: Space-Track

STARLINK-32288, 60943 is a payload satellite owned by SpaceX/Seattle (US) in LEO that was launched on Sat, 31 Aug 2024 UTC via an FALCON 9 launch vehicle from the Air Force Western Test Range (AFWTR). Payloads include a variety of satellites, spacecraft, and rockets equipped with specific instruments for various scientific and technological missions. These include communications satellites like Starlink; space stations such as the ISS; scientific satellites like the Hubble; Earth observation satellites from companies like Planet Labs, Umbra, and HawkEye 360; GPS; miniature CubeSats for education and research; and military/defense satellites.

Loading next visibility...
STARLINK-32288 details
Identifier
60943, 2024-155V
Orbit
LEO
Last TLE update9 hours ago
Origin
Flag of USSpaceX/Seattle (US)
ManufacturerSpaceX/Seattle
MissionOperational spacecraft
Bus & MotorSTARLINK V2M, Unknown motor
Mass730 kg wet, ~700 kg dry
Launch date (UTC)
2024-08-31 (5 months ago)
Launch vehicle
FALCON 9
Launch site
Air Force Western Test Range (AFWTR)
Object type
Payload
Rocket body
Debris
Shape & HBRUnknown
Radar Cross SectionLarge (>1 m²)

Expand to show TLE details & history

TLE from 9 hours ago
0 STARLINK-32288
1 60943U 24155V   25015.12704200 -.00000770  00000-0 -13878-4 0  9995
2 60943  53.1597 274.0883 0001284  65.0180 295.0954 15.30191572 22205
Epoch: 2025-01-15T03:02Z
Definitive object data (Epoch: 2025-01-15T03:02:56.428Z)
Latitude-0.00004°
Longitude113.5293°
Altitude475.767 km
Speed7.629 km/s
True Right ascension18h 16m 21s
True Declination0° 00' 00"
Sunlit
Object was in daylight at TLE epoch
Visualization TLE readout
Latitude-47.99257°
Longitude-12.37875°
Altitude492.568 km
Speed7.618 km/s
Apparent Right ascension04h 56m 48s
Apparent Declination-69° 47' 44"
Sunlit
Object is in daylight
Visualization observer readout
Local Sidereal Time12:38:12
Azimuth206.54° SW
Elevation-45.691°
Doppler factor1
Orbital elements
Apogee altitude476.377 km
Perigee altitude474.617 km
Semi-major axis6,853.634 km
Eccentricity0.0001284
Inclination53.1597°
RAAN274.0883°
Arg. of periapsis65.018°
True anomaly295.08207°
Mean anomaly295.0954°
Eccentric anomaly295.08874°
Mean motion3.82527 °/min
BSTAR-0.000013878
Orbital period94.11 mins
Loading maneuver chart data...
Loading historical data...
Loading historical data...
Loading historical data...
Loading historical data...
Loading historical data...
Loading historical data...
Loading historical data...

STARLINK-32288 Visibility forecast

Observer location: undefined°, undefined

Span
Click to sort rows by Start time (UTC) header in descending order
Start Az.
Max El. time (UTC)
Max El. Az.
Max El.
End time (UTC)
End Az.
5 mins2025-01-15 18:52:54.937Z175.122° S2025-01-15 18:54:54.937Z136.158° SSE20.717°2025-01-15 18:57:54.937Z78.628° E
5 mins2025-01-15 20:30:54.937Z265.18° W2025-01-15 20:32:54.937Z327.657° NNW34.154°2025-01-15 20:35:54.937Z36.311° NE
4 mins2025-01-16 01:27:54.937Z344.504° N2025-01-16 01:29:54.937Z31.465° NE23.029°2025-01-16 01:31:54.937Z74.755° E
5 mins2025-01-16 03:05:54.937Z288.799° WNW2025-01-16 03:07:54.937Z220.69° SW36.569°2025-01-16 03:10:54.937Z152.317° SSE
|